International Skating Union - Official Site

ISU World Cup Erfurt
March 21-22, 2015

Draw | Lap Times | Index | World Cup

Referee: Melanie  SYMALLA  (GER)
Starter: Ole Herman  SÖRLI  (NOR)
StartTime: EndTime: Air Temp: Ice Temp: Humidity:
13:02 13:48 15.3℃ -5.2℃ 29%
Result 3000m Ladies Division A
Rankings as of Mar 22 2015 5:31PM
Rank: No.: Name: Nation: Time: Behind: Points:
1 10 Martina  Sábliková CZE CZE 4:04.06200m - 20.28 - (20.2)
600m - 51.51 - (31.2)
1000m - 1:23.24 - (31.7)
1400m - 1:55.33 - (32.0)
1800m - 2:27.28 - (31.9)
2200m - 2:59.47 - (32.1)
2600m - 3:31.74 - (32.2)
3000m - 4:04.06 - (32.3)
150
2 31 Marije  Joling NED NED 4:05.64200m - 20.08 - (20.0)
600m - 51.06 - (30.9)
1000m - 1:22.64 - (31.5)
1400m - 1:54.34 - (31.7)
1800m - 2:26.53 - (32.1)
2200m - 2:59.11 - (32.5)
2600m - 3:32.07 - (32.9)
3000m - 4:05.64 - (33.5)
1.58 120
3 36 Diane  Valkenburg NED NED 4:07.85200m - 20.56 - (20.5)
600m - 52.11 - (31.5)
1000m - 1:24.10 - (31.9)
1400m - 1:56.55 - (32.4)
1800m - 2:28.97 - (32.4)
2200m - 3:01.44 - (32.4)
2600m - 3:34.20 - (32.7)
3000m - 4:07.85 - (33.6)
3.79 106
4 15 Claudia  Pechstein GER GER 4:09.14200m - 20.57 - (20.5)
600m - 52.63 - (32.0)
1000m - 1:25.19 - (32.5)
1400m - 1:57.75 - (32.5)
1800m - 2:30.48 - (32.7)
2200m - 3:03.37 - (32.8)
2600m - 3:36.52 - (33.1)
3000m - 4:09.14 - (32.6)
5.08 90
5 27 Carlijn  Achtereekte NED NED 4:09.67200m - 20.03 - (20.0)
600m - 51.40 - (31.3)
1000m - 1:23.50 - (32.1)
1400m - 1:56.45 - (32.9)
1800m - 2:29.53 - (33.0)
2200m - 3:02.77 - (33.2)
2600m - 3:36.28 - (33.5)
3000m - 4:09.67 - (33.3)
5.61 76
6 32 Carien  Kleibeuker NED NED 4:10.32200m - 21.65 - (21.6)
600m - 53.67 - (32.0)
1000m - 1:25.81 - (32.1)
1400m - 1:58.22 - (32.4)
1800m - 2:30.97 - (32.7)
2200m - 3:03.89 - (32.9)
2600m - 3:37.02 - (33.1)
3000m - 4:10.32 - (33.3)
6.26 45
7 3 Ivanie  Blondin CAN CAN 4:10.46200m - 20.75 - (20.7)
600m - 53.16 - (32.4)
1000m - 1:25.35 - (32.1)
1400m - 1:57.78 - (32.4)
1800m - 2:30.54 - (32.7)
2200m - 3:03.39 - (32.8)
2600m - 3:36.66 - (33.2)
3000m - 4:10.46 - (33.8)
6.40 40
8 41 Ida  Njåtun NOR NOR 4:11.98200m - 19.78 - (19.7)
600m - 51.62 - (31.8)
1000m - 1:25.13 - (33.5)
1400m - 1:58.15 - (33.0)
1800m - 2:31.09 - (32.9)
2200m - 3:04.31 - (33.2)
2600m - 3:37.97 - (33.6)
3000m - 4:11.98 - (34.0)
7.92 36
9 40 Jorien  Voorhuis NED NED 4:12.72200m - 20.02 - (20.0)
600m - 51.95 - (31.9)
1000m - 1:24.88 - (32.9)
1400m - 1:58.19 - (33.3)
1800m - 2:31.28 - (33.0)
2200m - 3:04.73 - (33.4)
2600m - 3:38.39 - (33.6)
3000m - 4:12.72 - (34.3)
8.66 32
10 43 Olga  Graf RUS RUS 4:13.38200m - 21.25 - (21.2)
600m - 53.31 - (32.0)
1000m - 1:25.88 - (32.5)
1400m - 1:59.05 - (33.1)
1800m - 2:32.30 - (33.2)
2200m - 3:05.86 - (33.5)
2600m - 3:39.63 - (33.7)
3000m - 4:13.38 - (33.7)
9.32 28
11 14 Bente  Kraus GER GER 4:14.29200m - 21.04 - (21.0)
600m - 53.63 - (32.5)
1000m - 1:26.19 - (32.5)
1400m - 1:59.35 - (33.1)
1800m - 2:32.75 - (33.4)
2200m - 3:06.61 - (33.8)
2600m - 3:40.66 - (34.0)
3000m - 4:14.29 - (33.6)
10.23 24
12 42 Luiza  Zlotkowska POL POL 4:14.87200m - 20.67 - (20.6)
600m - 52.88 - (32.2)
1000m - 1:26.09 - (33.2)
1400m - 1:58.94 - (32.8)
1800m - 2:32.25 - (33.3)
2200m - 3:06.21 - (33.9)
2600m - 3:40.63 - (34.4)
3000m - 4:14.87 - (34.2)
10.81 21
13 44 Yuliya  Skokova RUS RUS 4:15.29200m - 20.85 - (20.8)
600m - 54.06 - (33.2)
1000m - 1:26.98 - (32.9)
1400m - 2:00.06 - (33.0)
1800m - 2:33.47 - (33.4)
2200m - 3:06.96 - (33.4)
2600m - 3:41.04 - (34.0)
3000m - 4:15.29 - (34.2)
11.23 18
14 18 Shoko  Fujimura JPN JPN 4:16.59200m - 21.18 - (21.1)
600m - 53.81 - (32.6)
1000m - 1:26.58 - (32.7)
1400m - 1:59.82 - (33.2)
1800m - 2:33.59 - (33.7)
2200m - 3:07.76 - (34.1)
2600m - 3:41.98 - (34.2)
3000m - 4:16.59 - (34.5)
12.53 16
15 20 Ayaka  Kikuchi JPN JPN 4:18.74200m - 20.72 - (20.7)
600m - 53.62 - (32.9)
1000m - 1:26.84 - (33.2)
1400m - 1:59.74 - (32.9)
1800m - 2:33.49 - (33.7)
2200m - 3:08.02 - (34.5)
2600m - 3:43.25 - (35.2)
3000m - 4:18.74 - (35.4)
14.68 14
16 24 Nana  Takagi JPN JPN DQ200m - 20.25 - (20.2)
600m - 52.71 - (32.4)
1000m - 1:25.82 - (33.1)
1400m - 1:59.58 - (33.7)
1800m - 2:33.10 - (33.5)
2200m - 3:06.73 - (33.6)
2600m - 3:40.20 - (33.4)
3000m - 4:13.58 - (33.3)
0